Location: Newark
(50.4348°N, 30.5552°E)
Time: 20:22:24
(UTC+00:00)

Courier 1B Rocket - Pass Details

Date: 02 February 2020
Orbit: 920 x 1202 km, 28.2° (Epoch: 19 February)

Event Time Altitude Azimuth Distance (km) Brightness Sun altitude
Rises 06:35:23 0° 213° (SSW) 4,088 8.3 7.7°
Reaches altitude 10° 06:42:13 10° 172° (S) 3,097 8.5 8.5°
Maximum altitude 06:42:45 10° 168° (SSE) 3,087 8.6 8.6°
Drops below altitude 10° 06:43:17 10° 164° (SSE) 3,089 8.7 8.6°
Sets 06:49:57 0° 123° (ESE) 3,984 10.3 9.4°
